Location: Nairn
(57.5833°N, 3.8667°W)
Time: 21:54:59
(UTC+00:00)

Altair - Pass Details

Date: 08 October 2022
Orbit: 1501 x 1682 km, 47.2° (Epoch: 05 December)

Event Time Altitude Azimuth Distance (km) Brightness Sun altitude
Exits shadow 02:34:44 13° 157° (SSE) 3,539 9.2 -30.4°
Maximum altitude 02:38:33 17° 131° (SE) 3,308 9.2 -30.1°
Drops below altitude 10° 02:44:07 10° 96° (E) 3,875 10.1 -29.5°
Sets 02:48:46 0° 78° (ENE) 4,895 11.0 -29.1°
